Location: Maddington
(51.2000°N, 1.9167°W)
Time: 11:15:51
(UTC+00:00)

NOSS 2-2 (E) - Pass Details

Date: 19 January 2021
Orbit: 465 x 1741 km, 63.3° (Epoch: 16 January)

Event Time Altitude Azimuth Distance (km) Brightness Sun altitude
Rises 19:02:23 0° 309° (NW) 2,816 7.6 -22.4°
Reaches altitude 10° 19:04:45 10° 325° (NW) 2,050 6.6 -22.7°
Enters shadow 19:08:17 24° 15° (NNE) 1,512 5.3 -23.3°
